Private Wetterstation Wechselburg
Wetterdaten: Montag, 06.01.2014
Datum Zeit Temp. +2m Bodentemp. Temp.+5cm Temp. Wind Windchill X Diff Temp. Feuchte +2m Feuchte +5cm Sonnenschein Luftdruck Regen Wind Richtung Richtung Sonnenschein UV Taupunkt Windchill Windben
06.01.2014 00:00 0,3 C 14,6 C 0,3 C 0,1 C -0,3 C 0,0 C 88 % 87 % 0 % 1016,3 hPa 0,0 l/m 0,0 km/h (0 Bft) O-NO 67 0 min 0,0 UV-I -1,4 C -0,3 C 0,0 km/h (0 Bft)
06.01.2014 00:05 0,3 C 14,6 C 0,3 C 0,1 C -0,3 C 0,0 C 88 % 87 % 0 % 1016,3 hPa 0,0 l/m 0,0 km/h (0 Bft) W-SW 247 0 min 0,0 UV-I -1,4 C -0,3 C 0,0 km/h (0 Bft)
06.01.2014 00:10 0,3 C 14,6 C 0,3 C 0,1 C -0,3 C 0,0 C 88 % 87 % 0 % 1016,5 hPa 0,0 l/m 0,0 km/h (0 Bft) SW 225 0 min 0,0 UV-I -1,4 C -0,3 C 0,0 km/h (0 Bft)
06.01.2014 00:15 0,3 C 14,6 C 0,4 C 0,1 C -0,3 C 0,0 C 88 % 88 % 0 % 1016,5 hPa 0,0 l/m 0,2 km/h (0 Bft) SW 225 0 min 0,0 UV-I -1,4 C -0,3 C 0,0 km/h (0 Bft)
06.01.2014 00:20 0,3 C 14,6 C 0,2 C 0,1 C -0,3 C 0,0 C 88 % 87 % 0 % 1016,5 hPa 0,0 l/m 0,0 km/h (0 Bft) O-NO 67 0 min 0,0 UV-I -1,4 C -0,3 C 0,0 km/h (0 Bft)
06.01.2014 00:25 0,2 C 14,6 C 0,1 C 0,0 C -0,4 C 0,0 C 88 % 87 % 0 % 1016,5 hPa 0,0 l/m 0,0 km/h (0 Bft) N 360 0 min 0,0 UV-I -1,5 C -0,4 C 0,0 km/h (0 Bft)
06.01.2014 00:30 0,1 C 14,6 C 0,0 C -0,1 C -0,5 C 0,0 C 88 % 88 % 0 % 1016,3 hPa 0,0 l/m 0,0 km/h (0 Bft) W-SW 247 0 min 0,0 UV-I -1,6 C -0,5 C 0,0 km/h (0 Bft)
06.01.2014 00:35 0,0 C 14,7 C -0,1 C -0,2 C -0,6 C 0,0 C 88 % 88 % 0 % 1016,3 hPa 0,0 l/m 0,0 km/h (0 Bft) S-SO 157 0 min 0,0 UV-I -1,7 C -0,6 C 0,0 km/h (0 Bft)
06.01.2014 00:40 0,0 C 14,6 C -0,1 C -0,2 C -0,5 C 0,0 C 88 % 88 % 0 % 1016,3 hPa 0,0 l/m 0,2 km/h (0 Bft) W-SW 247 0 min 0,0 UV-I -1,7 C -0,5 C 2,1 km/h (1 Bft)
06.01.2014 00:45 0,1 C 14,5 C -0,1 C -0,1 C -0,6 C 0,0 C 88 % 88 % 0 % 1016,3 hPa 0,0 l/m 0,2 km/h (0 Bft) S-SW 202 0 min 0,0 UV-I -1,6 C -0,6 C 2,1 km/h (1 Bft)
06.01.2014 00:50 -0,1 C 14,5 C -0,2 C -0,3 C -0,6 C 0,0 C 88 % 88 % 0 % 1016,2 hPa 0,0 l/m 0,0 km/h (0 Bft) W 270 0 min 0,0 UV-I -1,8 C -0,6 C 0,0 km/h (0 Bft)
06.01.2014 00:55 -0,1 C 14,5 C -0,1 C -0,3 C -0,7 C 0,0 C 88 % 88 % 0 % 1016,2 hPa 0,0 l/m 0,0 km/h (0 Bft) W-SW 247 0 min 0,0 UV-I -1,8 C -0,7 C 0,0 km/h (0 Bft)
06.01.2014 01:00 -0,1 C 14,5 C -0,1 C -0,3 C -0,7 C 0,0 C 88 % 88 % 0 % 1016,2 hPa 0,0 l/m 0,0 km/h (0 Bft) W 270 0 min 0,0 UV-I -1,8 C -0,7 C 0,0 km/h (0 Bft)
06.01.2014 01:05 -0,1 C 14,5 C -0,3 C -0,3 C -0,8 C 0,0 C 88 % 88 % 0 % 1016,2 hPa 0,0 l/m 0,0 km/h (0 Bft) W 270 0 min 0,0 UV-I -1,8 C -0,8 C 0,0 km/h (0 Bft)
06.01.2014 01:10 -0,3 C 14,6 C -0,1 C -0,6 C -1,2 C 0,0 C 88 % 88 % 0 % 1016,4 hPa 0,0 l/m 0,0 km/h (0 Bft) W 270 0 min 0,0 UV-I -2,0 C -1,2 C 0,0 km/h (0 Bft)
06.01.2014 01:15 -0,4 C 14,6 C -0,3 C -0,6 C -1,1 C 0,0 C 88 % 88 % 0 % 1016,4 hPa 0,0 l/m 0,0 km/h (0 Bft) W-SW 247 0 min 0,0 UV-I -2,1 C -1,1 C 0,0 km/h (0 Bft)
06.01.2014 01:20 -0,3 C 14,5 C -0,3 C -0,6 C -1,1 C 0,0 C 88 % 88 % 0 % 1016,4 hPa 0,0 l/m 0,0 km/h (0 Bft) W-SW 247 0 min 0,0 UV-I -2,0 C -1,1 C 0,0 km/h (0 Bft)
06.01.2014 01:25 -0,5 C 14,5 C -0,5 C -0,8 C -1,3 C 0,0 C 88 % 88 % 0 % 1016,4 hPa 0,0 l/m 0,0 km/h (0 Bft) SW 225 0 min 0,0 UV-I -2,2 C -1,3 C 0,0 km/h (0 Bft)
06.01.2014 01:30 -0,7 C 14,5 C -0,7 C -1,0 C -1,5 C 0,0 C 88 % 88 % 0 % 1016,4 hPa 0,0 l/m 0,0 km/h (0 Bft) SW 225 0 min 0,0 UV-I -2,4 C -1,5 C 0,0 km/h (0 Bft)
06.01.2014 01:35 -0,7 C 14,5 C -0,7 C -1,0 C -1,6 C 0,0 C 88 % 88 % 0 % 1016,4 hPa 0,0 l/m 0,0 km/h (0 Bft) NW 315 0 min 0,0 UV-I -2,4 C -1,6 C 0,0 km/h (0 Bft)
06.01.2014 01:40 -0,9 C 14,5 C -0,7 C -1,2 C -1,7 C 0,0 C 88 % 88 % 0 % 1016,4 hPa 0,0 l/m 0,0 km/h (0 Bft) NW 315 0 min 0,0 UV-I -2,6 C -1,7 C 0,0 km/h (0 Bft)
06.01.2014 01:45 -0,9 C 14,5 C -0,9 C -1,2 C -1,7 C 0,0 C 88 % 88 % 0 % 1016,4 hPa 0,0 l/m 0,0 km/h (0 Bft) W 270 0 min 0,0 UV-I -2,6 C -1,7 C 0,0 km/h (0 Bft)
06.01.2014 01:50 -1,1 C 14,5 C -0,9 C -1,3 C -1,7 C 0,0 C 88 % 88 % 0 % 1016,8 hPa 0,0 l/m 0,0 km/h (0 Bft) O-NO 67 0 min 0,0 UV-I -2,8 C -1,7 C 0,0 km/h (0 Bft)
06.01.2014 01:55 -1,1 C 14,5 C -0,9 C -1,2 C -1,4 C 0,0 C 88 % 88 % 0 % 1016,8 hPa 0,0 l/m 0,0 km/h (0 Bft) N-NO 22 0 min 0,0 UV-I -2,8 C -1,4 C 0,0 km/h (0 Bft)
06.01.2014 02:00 -0,9 C 14,4 C -0,9 C -1,1 C -1,4 C 0,0 C 88 % 88 % 0 % 1016,8 hPa 0,0 l/m 0,0 km/h (0 Bft) NO 45 0 min 0,0 UV-I -2,6 C -1,4 C 0,0 km/h (0 Bft)
06.01.2014 02:05 -1,1 C 14,4 C -0,9 C -1,3 C -1,6 C 0,0 C 88 % 88 % 0 % 1016,8 hPa 0,0 l/m 0,0 km/h (0 Bft) NW 315 0 min 0,0 UV-I -2,8 C -1,6 C 0,0 km/h (0 Bft)
06.01.2014 02:10 -1,3 C 14,4 C -0,9 C -1,5 C -1,9 C 0,0 C 88 % 88 % 0 % 1016,5 hPa 0,0 l/m 0,0 km/h (0 Bft) NW 315 0 min 0,0 UV-I -3,0 C -1,9 C 0,0 km/h (0 Bft)
06.01.2014 02:15 -1,3 C 14,4 C -1,1 C -1,5 C -1,9 C 0,0 C 88 % 88 % 0 % 1016,5 hPa 0,0 l/m 0,0 km/h (0 Bft) NO 45 0 min 0,0 UV-I -3,0 C -1,9 C 0,0 km/h (0 Bft)
06.01.2014 02:20 -1,4 C 14,4 C -1,2 C -1,3 C -1,3 C 0,1 C 88 % 88 % 0 % 1016,5 hPa 0,0 l/m 0,0 km/h (0 Bft) W-SW 247 0 min 0,0 UV-I -3,1 C -1,3 C 0,0 km/h (0 Bft)
06.01.2014 02:25 -1,5 C 14,4 C -1,1 C -1,3 C -1,3 C 0,2 C 88 % 88 % 0 % 1016,5 hPa 0,0 l/m 0,0 km/h (0 Bft) W 270 0 min 0,0 UV-I -3,2 C -1,3 C 0,0 km/h (0 Bft)
06.01.2014 02:30 -1,5 C 14,4 C -1,2 C -1,5 C -1,6 C 0,0 C 88 % 88 % 0 % 1016,5 hPa 0,0 l/m 0,0 km/h (0 Bft) W-SW 247 0 min 0,0 UV-I -3,2 C -1,6 C 0,0 km/h (0 Bft)
06.01.2014 02:35 -1,6 C 14,3 C -1,2 C -1,7 C -1,8 C 0,0 C 88 % 88 % 0 % 1016,5 hPa 0,0 l/m 0,0 km/h (0 Bft) SW 225 0 min 0,0 UV-I -3,3 C -1,8 C 0,0 km/h (0 Bft)
06.01.2014 02:40 -1,7 C 14,3 C -1,3 C -1,8 C -2,0 C 0,0 C 88 % 88 % 0 % 1016,5 hPa 0,0 l/m 0,0 km/h (0 Bft) W-SW 247 0 min 0,0 UV-I -3,4 C -2,0 C 0,0 km/h (0 Bft)
06.01.2014 02:45 -1,7 C 14,3 C -1,3 C -1,8 C -2,1 C 0,0 C 88 % 88 % 0 % 1016,5 hPa 0,0 l/m 0,0 km/h (0 Bft) W 270 0 min 0,0 UV-I -3,4 C -2,1 C 0,0 km/h (0 Bft)
06.01.2014 02:50 -1,7 C 14,3 C -1,3 C -1,9 C -2,2 C 0,0 C 88 % 88 % 0 % 1015,6 hPa 0,0 l/m 0,0 km/h (0 Bft) W 270 0 min 0,0 UV-I -3,4 C -2,2 C 0,0 km/h (0 Bft)
06.01.2014 02:55 -1,7 C 14,3 C -1,3 C -1,9 C -2,4 C 0,0 C 89 % 88 % 0 % 1015,6 hPa 0,0 l/m 0,0 km/h (0 Bft) W-SW 247 0 min 0,0 UV-I -3,3 C -2,4 C 0,0 km/h (0 Bft)
06.01.2014 03:00 -1,7 C 14,3 C -1,3 C -1,9 C -2,4 C 0,0 C 89 % 88 % 0 % 1015,6 hPa 0,0 l/m 0,0 km/h (0 Bft) W-SW 247 0 min 0,0 UV-I -3,3 C -2,4 C 0,0 km/h (0 Bft)
06.01.2014 03:05 -1,8 C 14,3 C -1,3 C -1,9 C -2,2 C 0,0 C 89 % 88 % 0 % 1015,6 hPa 0,0 l/m 0,0 km/h (0 Bft) S 180 0 min 0,0 UV-I -3,4 C -2,2 C 0,0 km/h (0 Bft)
06.01.2014 03:10 -1,8 C 14,3 C -1,3 C -1,9 C -2,0 C 0,0 C 89 % 88 % 0 % 1016,1 hPa 0,0 l/m 0,0 km/h (0 Bft) O-NO 67 0 min 0,0 UV-I -3,4 C -2,0 C 0,0 km/h (0 Bft)
06.01.2014 03:15 -1,7 C 14,3 C -1,3 C -1,8 C -1,9 C 0,0 C 89 % 88 % 0 % 1016,1 hPa 0,0 l/m 0,0 km/h (0 Bft) W 270 0 min 0,0 UV-I -3,3 C -1,9 C 0,0 km/h (0 Bft)
06.01.2014 03:20 -1,7 C 14,3 C -1,4 C -1,8 C -2,0 C 0,0 C 89 % 88 % 0 % 1016,1 hPa 0,0 l/m 0,0 km/h (0 Bft) W 270 0 min 0,0 UV-I -3,3 C -2,0 C 0,0 km/h (0 Bft)
06.01.2014 03:25 -1,9 C 14,2 C -1,4 C -2,0 C -2,1 C 0,0 C 89 % 88 % 0 % 1016,1 hPa 0,0 l/m 0,0 km/h (0 Bft) NO 45 0 min 0,0 UV-I -3,5 C -2,1 C 0,0 km/h (0 Bft)
06.01.2014 03:30 -1,9 C 14,2 C -1,4 C -2,0 C -2,1 C 0,0 C 89 % 88 % 0 % 1015,6 hPa 0,0 l/m 0,0 km/h (0 Bft) W-NW 292 0 min 0,0 UV-I -3,5 C -2,1 C 0,0 km/h (0 Bft)
06.01.2014 03:35 -1,9 C 14,2 C -1,3 C -2,0 C -2,1 C 0,0 C 89 % 88 % 0 % 1015,6 hPa 0,0 l/m 0,0 km/h (0 Bft) N-NW 337 0 min 0,0 UV-I -3,5 C -2,1 C 0,0 km/h (0 Bft)
06.01.2014 03:40 -1,7 C 14,2 C -1,3 C -1,8 C -2,1 C 0,0 C 89 % 88 % 0 % 1015,6 hPa 0,0 l/m 0,0 km/h (0 Bft) N-NO 22 0 min 0,0 UV-I -3,3 C -2,1 C 0,0 km/h (0 Bft)
06.01.2014 03:45 -1,7 C 14,2 C -1,3 C -1,8 C -2,0 C 0,0 C 89 % 88 % 0 % 1015,6 hPa 0,0 l/m 0,0 km/h (0 Bft) N-NW 337 0 min 0,0 UV-I -3,3 C -2,0 C 0,0 km/h (0 Bft)
06.01.2014 03:50 -1,7 C 14,2 C -1,2 C -1,7 C -1,7 C 0,0 C 90 % 88 % 0 % 1015,8 hPa 0,0 l/m 0,6 km/h (0 Bft) N-NW 337 0 min 0,0 UV-I -3,1 C -1,7 C 2,4 km/h (1 Bft)
06.01.2014 03:55 -1,5 C 14,2 C -1,2 C -1,6 C -1,7 C 0,0 C 90 % 88 % 0 % 1015,8 hPa 0,0 l/m 0,6 km/h (0 Bft) W-SW 247 0 min 0,0 UV-I -2,9 C -1,7 C 0,0 km/h (0 Bft)
06.01.2014 04:00 -1,7 C 14,2 C -1,3 C -1,8 C -2,0 C 0,0 C 90 % 88 % 0 % 1015,8 hPa 0,0 l/m 0,0 km/h (0 Bft) W-SW 247 0 min 0,0 UV-I -3,1 C -2,0 C 0,0 km/h (0 Bft)
06.01.2014 04:05 -1,7 C 14,1 C -1,3 C -1,9 C -2,2 C 0,0 C 89 % 88 % 0 % 1015,8 hPa 0,0 l/m 0,0 km/h (0 Bft) W-SW 247 0 min 0,0 UV-I -3,3 C -2,2 C 0,0 km/h (0 Bft)
06.01.2014 04:10 -1,9 C 14,1 C -1,3 C -2,1 C -2,4 C 0,0 C 89 % 88 % 0 % 1015,3 hPa 0,0 l/m 0,0 km/h (0 Bft) W-NW 292 0 min 0,0 UV-I -3,5 C -2,4 C 0,0 km/h (0 Bft)
06.01.2014 04:15 -2,0 C 14,1 C -1,5 C -2,1 C -2,4 C 0,0 C 89 % 88 % 0 % 1015,3 hPa 0,0 l/m 0,0 km/h (0 Bft) O-NO 67 0 min 0,0 UV-I -3,6 C -2,4 C 0,0 km/h (0 Bft)
06.01.2014 04:20 -2,0 C 14,1 C -1,7 C -2,0 C -2,1 C 0,0 C 89 % 88 % 0 % 1015,3 hPa 0,0 l/m 0,0 km/h (0 Bft) NW 315 0 min 0,0 UV-I -3,6 C -2,1 C 0,0 km/h (0 Bft)
06.01.2014 04:25 -1,9 C 14,1 C -1,7 C -1,9 C -2,0 C 0,0 C 89 % 88 % 0 % 1015,3 hPa 0,0 l/m 0,0 km/h (0 Bft) W 270 0 min 0,0 UV-I -3,5 C -2,0 C 0,0 km/h (0 Bft)
06.01.2014 04:30 -2,0 C 14,1 C -1,6 C -2,1 C -2,2 C 0,0 C 89 % 88 % 0 % 1015,3 hPa 0,0 l/m 0,0 km/h (0 Bft) N-NW 337 0 min 0,0 UV-I -3,6 C -2,2 C 0,0 km/h (0 Bft)
06.01.2014 04:35 -1,9 C 14,1 C -1,6 C -2,0 C -2,2 C 0,0 C 89 % 89 % 0 % 1015,3 hPa 0,0 l/m 0,2 km/h (0 Bft) W 270 0 min 0,0 UV-I -3,5 C -2,2 C 0,0 km/h (0 Bft)
06.01.2014 04:40 -1,9 C 14,1 C -1,3 C -1,9 C -2,0 C 0,0 C 89 % 89 % 0 % 1015,3 hPa 0,0 l/m 0,3 km/h (0 Bft) N-NO 22 0 min 0,0 UV-I -3,5 C -2,0 C 2,7 km/h (1 Bft)
06.01.2014 04:45 -1,9 C 14,1 C -1,5 C -1,9 C -2,0 C 0,0 C 89 % 89 % 0 % 1015,3 hPa 0,0 l/m 0,3 km/h (0 Bft) W-SW 247 0 min 0,0 UV-I -3,5 C -2,0 C 0,0 km/h (0 Bft)
06.01.2014 04:50 -1,7 C 14,1 C -1,4 C -1,8 C -2,0 C 0,0 C 90 % 89 % 0 % 1015,7 hPa 0,0 l/m 0,5 km/h (0 Bft) W-SW 247 0 min 0,0 UV-I -3,1 C -2,0 C 0,0 km/h (0 Bft)
06.01.2014 04:55 -1,7 C 14,1 C -1,3 C -1,8 C -2,0 C 0,0 C 90 % 89 % 0 % 1015,7 hPa 0,0 l/m 0,5 km/h (0 Bft) O 90 0 min 0,0 UV-I -3,1 C -2,0 C 0,0 km/h (0 Bft)
06.01.2014 05:00 -2,0 C 14,0 C -1,5 C -2,0 C -2,0 C 0,0 C 89 % 89 % 0 % 1015,7 hPa 0,0 l/m 0,2 km/h (0 Bft) O-SO 112 0 min 0,0 UV-I -3,6 C -2,0 C 0,0 km/h (0 Bft)
06.01.2014 05:05 -1,9 C 14,0 C -1,6 C -2,0 C -2,1 C 0,0 C 89 % 89 % 0 % 1015,7 hPa 0,0 l/m 0,2 km/h (0 Bft) O-SO 112 0 min 0,0 UV-I -3,5 C -2,1 C 0,0 km/h (0 Bft)
06.01.2014 05:10 -2,0 C 14,0 C -1,6 C -2,1 C -2,2 C 0,0 C 89 % 89 % 0 % 1015,6 hPa 0,0 l/m 0,0 km/h (0 Bft) O-NO 67 0 min 0,0 UV-I -3,6 C -2,2 C 0,0 km/h (0 Bft)
06.01.2014 05:15 -2,1 C 14,0 C -1,7 C -2,2 C -2,3 C 0,0 C 89 % 89 % 0 % 1015,6 hPa 0,0 l/m 0,3 km/h (0 Bft) O-NO 67 0 min 0,0 UV-I -3,7 C -2,3 C 2,3 km/h (1 Bft)
06.01.2014 05:20 -2,1 C 14,0 C -1,7 C -2,2 C -2,4 C 0,0 C 89 % 89 % 0 % 1015,6 hPa 0,0 l/m 0,3 km/h (0 Bft) W 270 0 min 0,0 UV-I -3,7 C -2,4 C 0,0 km/h (0 Bft)
06.01.2014 05:25 -2,1 C 14,0 C -1,7 C -2,3 C -2,6 C 0,0 C 89 % 89 % 0 % 1015,6 hPa 0,0 l/m 0,3 km/h (0 Bft) W-NW 292 0 min 0,0 UV-I -3,7 C -2,6 C 0,0 km/h (0 Bft)
06.01.2014 05:30 -2,4 C 13,9 C -1,9 C -2,6 C -2,9 C 0,0 C 89 % 88 % 0 % 1015,5 hPa 0,0 l/m 0,0 km/h (0 Bft) W 270 0 min 0,0 UV-I -4,0 C -2,9 C 0,0 km/h (0 Bft)
06.01.2014 05:35 -2,5 C 13,9 C -1,9 C -2,7 C -3,1 C 0,0 C 89 % 88 % 0 % 1015,5 hPa 0,0 l/m 0,0 km/h (0 Bft) W-SW 247 0 min 0,0 UV-I -4,1 C -3,1 C 0,0 km/h (0 Bft)
06.01.2014 05:40 -2,5 C 13,9 C -2,1 C -2,7 C -3,2 C 0,0 C 89 % 88 % 0 % 1015,5 hPa 0,0 l/m 0,2 km/h (0 Bft) O-NO 67 0 min 0,0 UV-I -4,1 C -3,2 C 2,3 km/h (1 Bft)
06.01.2014 05:45 -2,5 C 13,9 C -1,9 C -2,6 C -2,8 C 0,0 C 89 % 88 % 0 % 1015,5 hPa 0,0 l/m 0,5 km/h (0 Bft) O-SO 112 0 min 0,0 UV-I -4,1 C -2,8 C 0,0 km/h (0 Bft)
06.01.2014 05:50 -2,3 C 13,9 C -1,9 C -2,4 C -2,5 C 0,0 C 89 % 89 % 0 % 1015,0 hPa 0,0 l/m 0,6 km/h (0 Bft) W 270 0 min 0,0 UV-I -3,9 C -2,5 C 3,1 km/h (1 Bft)
06.01.2014 05:55 -2,4 C 13,9 C -1,9 C -2,5 C -2,6 C 0,0 C 89 % 89 % 0 % 1015,0 hPa 0,0 l/m 0,2 km/h (0 Bft) W-SW 247 0 min 0,0 UV-I -4,0 C -2,6 C 0,0 km/h (0 Bft)
06.01.2014 06:00 -2,5 C 13,9 C -1,9 C -2,6 C -2,8 C 0,0 C 89 % 89 % 0 % 1015,0 hPa 0,0 l/m 0,3 km/h (0 Bft) O-NO 67 0 min 0,0 UV-I -4,1 C -2,8 C 0,0 km/h (0 Bft)
06.01.2014 06:05 -2,5 C 13,9 C -2,0 C -2,6 C -2,9 C 0,0 C 89 % 89 % 0 % 1015,0 hPa 0,0 l/m 0,5 km/h (0 Bft) W-NW 292 0 min 0,0 UV-I -4,1 C -2,9 C 0,0 km/h (0 Bft)
06.01.2014 06:10 -2,5 C 13,9 C -2,1 C -2,7 C -3,2 C 0,0 C 89 % 89 % 0 % 1015,0 hPa 0,0 l/m 0,3 km/h (0 Bft) W 270 0 min 0,0 UV-I -4,1 C -3,2 C 3,4 km/h (1 Bft)
06.01.2014 06:15 -2,7 C 13,9 C -2,1 C -2,9 C -3,3 C 0,0 C 89 % 89 % 0 % 1015,0 hPa 0,0 l/m 0,0 km/h (0 Bft) N-NO 22 0 min 0,0 UV-I -4,3 C -3,3 C 0,0 km/h (0 Bft)
06.01.2014 06:20 -2,7 C 13,8 C -2,1 C -2,8 C -3,1 C 0,0 C 89 % 89 % 0 % 1015,0 hPa 0,0 l/m 0,0 km/h (0 Bft) N-NO 22 0 min 0,0 UV-I -4,3 C -3,1 C 0,0 km/h (0 Bft)
06.01.2014 06:25 -2,7 C 13,8 C -2,1 C -2,8 C -3,0 C 0,0 C 89 % 89 % 0 % 1015,0 hPa 0,0 l/m 0,0 km/h (0 Bft) O-NO 67 0 min 0,0 UV-I -4,3 C -3,0 C 0,0 km/h (0 Bft)
06.01.2014 06:30 -2,7 C 13,8 C -2,3 C -2,6 C -2,6 C 0,1 C 89 % 89 % 0 % 1015,0 hPa 0,0 l/m 0,0 km/h (0 Bft) O-NO 67 0 min 0,0 UV-I -4,3 C -2,6 C 0,0 km/h (0 Bft)
06.01.2014 06:35 -2,6 C 13,8 C -2,3 C -2,4 C -2,4 C 0,2 C 90 % 89 % 0 % 1015,0 hPa 0,0 l/m 0,2 km/h (0 Bft) O-NO 67 0 min 0,0 UV-I -4,0 C -2,4 C 0,0 km/h (0 Bft)
06.01.2014 06:40 -2,3 C 13,8 C -2,1 C -2,0 C -2,0 C 0,3 C 90 % 89 % 0 % 1015,0 hPa 0,0 l/m 0,5 km/h (0 Bft) O-NO 67 0 min 0,0 UV-I -3,7 C -2,0 C 1,8 km/h (1 Bft)
06.01.2014 06:45 -2,1 C 13,8 C -2,0 C -1,8 C -1,8 C 0,3 C 90 % 89 % 0 % 1015,0 hPa 0,0 l/m 0,5 km/h (0 Bft) O 90 0 min 0,0 UV-I -3,5 C -1,8 C 0,0 km/h (0 Bft)
06.01.2014 06:50 -2,1 C 13,8 C -1,7 C -1,8 C -1,8 C 0,3 C 90 % 89 % 0 % 1015,4 hPa 0,0 l/m 0,2 km/h (0 Bft) O-NO 67 0 min 0,0 UV-I -3,5 C -1,8 C 0,0 km/h (0 Bft)
06.01.2014 06:55 -2,1 C 13,7 C -1,7 C -1,7 C -1,7 C 0,4 C 90 % 89 % 0 % 1015,4 hPa 0,0 l/m 0,0 km/h (0 Bft) O 90 0 min 0,0 UV-I -3,5 C -1,7 C 0,0 km/h (0 Bft)
06.01.2014 07:00 -1,6 C 13,6 C -1,3 C -1,5 C -1,5 C 0,1 C 91 % 89 % 0 % 1015,4 hPa 0,0 l/m 0,3 km/h (0 Bft) O-SO 112 0 min 0,0 UV-I -2,9 C -1,5 C 1,8 km/h (1 Bft)
06.01.2014 07:05 -1,4 C 13,6 C -1,2 C -1,4 C -1,4 C 0,0 C 91 % 89 % 0 % 1015,4 hPa 0,0 l/m 0,3 km/h (0 Bft) O-SO 112 0 min 0,0 UV-I -2,7 C -1,4 C 2,6 km/h (1 Bft)
06.01.2014 07:10 -1,1 C 13,6 C -0,9 C -1,2 C -1,4 C 0,0 C 91 % 89 % 0 % 1014,7 hPa 0,0 l/m 0,5 km/h (0 Bft) W-SW 247 0 min 0,0 UV-I -2,4 C -1,4 C 0,0 km/h (0 Bft)
06.01.2014 07:15 -1,3 C 13,7 C -1,1 C -1,4 C -1,5 C 0,0 C 90 % 89 % 0 % 1014,7 hPa 0,0 l/m 0,6 km/h (0 Bft) SO 135 0 min 0,0 UV-I -2,7 C -1,5 C 0,0 km/h (0 Bft)
06.01.2014 07:20 -1,5 C 13,5 C -1,3 C -1,6 C -1,7 C 0,0 C 90 % 89 % 0 % 1014,7 hPa 0,0 l/m 0,5 km/h (0 Bft) W 270 0 min 0,0 UV-I -2,9 C -1,7 C 1,6 km/h (1 Bft)
06.01.2014 07:25 -1,7 C 13,7 C -1,5 C -1,8 C -1,9 C 0,0 C 90 % 89 % 0 % 1014,7 hPa 0,0 l/m 0,6 km/h (0 Bft) W-SW 247 0 min 0,0 UV-I -3,1 C -1,9 C 0,0 km/h (0 Bft)
06.01.2014 07:30 -1,9 C 13,7 C -1,7 C -2,1 C -2,4 C 0,0 C 89 % 89 % 0 % 1014,9 hPa 0,0 l/m 0,5 km/h (0 Bft) O-SO 112 0 min 0,0 UV-I -3,5 C -2,4 C 0,0 km/h (0 Bft)
06.01.2014 07:35 -2,0 C 13,6 C -1,6 C -2,1 C -2,2 C 0,0 C 89 % 89 % 0 % 1014,9 hPa 0,0 l/m 0,0 km/h (0 Bft) NO 45 0 min 0,0 UV-I -3,6 C -2,2 C 0,0 km/h (0 Bft)
06.01.2014 07:40 -1,9 C 13,7 C -1,6 C -2,0 C -2,2 C 0,0 C 89 % 89 % 0 % 1014,9 hPa 0,0 l/m 0,0 km/h (0 Bft) W 270 0 min 0,0 UV-I -3,5 C -2,2 C 0,0 km/h (0 Bft)
06.01.2014 07:45 -1,9 C 13,7 C -1,6 C -2,0 C -2,2 C 0,0 C 89 % 89 % 0 % 1014,9 hPa 0,0 l/m 0,2 km/h (0 Bft) O 90 0 min 0,0 UV-I -3,5 C -2,2 C 2,7 km/h (1 Bft)
06.01.2014 07:50 -1,7 C 13,6 C -1,3 C -1,7 C -1,8 C 0,0 C 90 % 89 % 0 % 1015,6 hPa 0,0 l/m 0,5 km/h (0 Bft) O-NO 67 0 min 0,0 UV-I -3,1 C -1,8 C 0,0 km/h (0 Bft)
06.01.2014 07:55 -1,6 C 13,6 C -1,3 C -1,5 C -1,5 C 0,1 C 90 % 89 % 0 % 1015,6 hPa 0,0 l/m 0,6 km/h (0 Bft) O-SO 112 0 min 0,0 UV-I -3,0 C -1,5 C 0,0 km/h (0 Bft)
06.01.2014 08:00 -1,3 C 13,5 C -1,1 C -1,3 C -1,3 C 0,0 C 90 % 89 % 0 % 1015,6 hPa 0,0 l/m 0,6 km/h (0 Bft) O-NO 67 0 min 0,0 UV-I -2,7 C -1,3 C 0,0 km/h (0 Bft)
06.01.2014 08:05 -1,1 C 13,3 C -0,9 C -1,1 C -1,1 C 0,0 C 90 % 89 % 0 % 1015,6 hPa 0,0 l/m 0,8 km/h (0 Bft) W-SW 247 0 min 0,0 UV-I -2,5 C -1,1 C 3,1 km/h (1 Bft)
06.01.2014 08:10 -1,3 C 13,5 C -1,1 C -1,3 C -1,4 C 0,0 C 89 % 89 % 0 % 1015,5 hPa 0,0 l/m 0,5 km/h (0 Bft) NW 315 0 min 0,0 UV-I -2,9 C -1,4 C 0,0 km/h (0 Bft)
06.01.2014 08:15 -1,3 C 13,6 C -1,2 C -1,4 C -1,5 C 0,0 C 89 % 89 % 0 % 1015,5 hPa 0,0 l/m 0,5 km/h (0 Bft) SW 225 0 min 0,0 UV-I -2,9 C -1,5 C 0,0 km/h (0 Bft)
06.01.2014 08:20 -1,3 C 13,5 C -1,3 C -1,4 C -1,5 C 0,0 C 89 % 89 % 0 % 1015,5 hPa 0,0 l/m 0,2 km/h (0 Bft) S 180 0 min 0,0 UV-I -2,9 C -1,5 C 2,3 km/h (1 Bft)
06.01.2014 08:25 -1,1 C 13,2 C -0,7 C -1,2 C -1,3 C 0,0 C 89 % 89 % 0 % 1015,5 hPa 0,0 l/m 0,3 km/h (0 Bft) SW 225 0 min 0,0 UV-I -2,7 C -1,3 C 1,8 km/h (1 Bft)
06.01.2014 08:30 -0,5 C 13,2 C -0,3 C -0,6 C -0,7 C 0,0 C 90 % 89 % 0 % 1014,9 hPa 0,0 l/m 1,6 km/h (1 Bft) SW 225 0 min 0,0 UV-I -1,9 C -0,7 C 8,2 km/h (2 Bft)
06.01.2014 08:35 -0,4 C 13,1 C -0,2 C -0,4 C -0,5 C 0,0 C 90 % 89 % 0 % 1014,9 hPa 0,0 l/m 2,1 km/h (1 Bft) S-SW 202 0 min 0,0 UV-I -1,8 C -0,5 C 4,8 km/h (1 Bft)
06.01.2014 08:40 0,1 C 13,1 C 0,3 C 0,0 C -0,1 C 0,0 C 90 % 89 % 0 % 1014,9 hPa 0,0 l/m 2,3 km/h (1 Bft) SW 225 0 min 0,0 UV-I -1,3 C -0,1 C 4,8 km/h (1 Bft)
06.01.2014 08:45 0,5 C 13,1 C 0,5 C 0,3 C 0,0 C 0,0 C 89 % 89 % 0 % 1014,9 hPa 0,0 l/m 2,3 km/h (1 Bft) SW 225 0 min 0,0 UV-I -1,1 C 0,0 C 2,9 km/h (1 Bft)
06.01.2014 08:50 0,8 C 13,1 C 0,7 C 0,6 C 0,2 C 0,0 C 89 % 89 % 0 % 1014,9 hPa 0,0 l/m 2,1 km/h (1 Bft) SO 135 0 min 0,0 UV-I -0,8 C 0,2 C 1,9 km/h (1 Bft)
06.01.2014 08:55 1,1 C 13,1 C 1,0 C 0,8 C 0,3 C 0,0 C 89 % 89 % 0 % 1014,9 hPa 0,0 l/m 1,9 km/h (1 Bft) SW 225 0 min 0,0 UV-I -0,5 C 0,3 C 4,5 km/h (1 Bft)
06.01.2014 09:00 1,9 C 13,1 C 1,2 C 1,3 C 0,1 C 0,0 C 87 % 89 % 0 % 1014,9 hPa 0,0 l/m 3,4 km/h (1 Bft) SW 225 0 min 0,0 UV-I -0,0 C 0,1 C 8,0 km/h (2 Bft)
06.01.2014 09:05 2,3 C 13,1 C 1,6 C 1,5 C -0,2 C 0,0 C 86 % 88 % 0 % 1014,9 hPa 0,0 l/m 4,3 km/h (1 Bft) O-SO 112 0 min 0,0 UV-I 0,2 C -0,2 C 5,5 km/h (1 Bft)
06.01.2014 09:10 2,8 C 13,0 C 1,7 C 1,9 C 0,2 C 0,0 C 84 % 88 % 0 % 1015,8 hPa 0,0 l/m 4,5 km/h (1 Bft) W-SW 247 0 min 0,0 UV-I 0,4 C 0,2 C 9,7 km/h (2 Bft)
06.01.2014 09:15 3,3 C 13,0 C 2,0 C 2,5 C 0,8 C 0,0 C 83 % 88 % 0 % 1015,8 hPa 0,0 l/m 4,5 km/h (1 Bft) S-SO 157 0 min 0,0 UV-I 0,7 C 0,8 C 7,1 km/h (2 Bft)
06.01.2014 09:20 3,7 C 13,0 C 2,3 C 2,9 C 1,2 C 0,0 C 82 % 87 % 0 % 1015,8 hPa 0,0 l/m 5,1 km/h (1 Bft) S 180 0 min 0,0 UV-I 0,9 C -0,3 C 10,5 km/h (2 Bft)
06.01.2014 09:25 4,0 C 12,9 C 2,5 C 3,3 C 1,9 C 0,0 C 81 % 87 % 0 % 1015,8 hPa 0,0 l/m 4,5 km/h (1 Bft) S 180 0 min 0,0 UV-I 1,0 C 1,9 C 5,0 km/h (1 Bft)
06.01.2014 09:30 4,3 C 12,9 C 2,8 C 3,6 C 2,2 C 0,0 C 80 % 87 % 0 % 1015,3 hPa 0,0 l/m 5,1 km/h (1 Bft) SW 225 0 min 0,0 UV-I 1,2 C 0,9 C 11,9 km/h (2 Bft)
06.01.2014 09:35 4,5 C 12,9 C 3,1 C 3,8 C 2,4 C 0,0 C 78 % 86 % 0 % 1015,3 hPa 0,0 l/m 6,0 km/h (2 Bft) S 180 0 min 0,0 UV-I 1,0 C 0,7 C 9,3 km/h (2 Bft)
06.01.2014 09:40 4,9 C 12,9 C 3,3 C 4,1 C 2,6 C 0,0 C 76 % 85 % 0 % 1015,3 hPa 0,0 l/m 6,8 km/h (2 Bft) S 180 0 min 0,0 UV-I 1,0 C 0,7 C 12,7 km/h (3 Bft)
06.01.2014 09:45 5,1 C 13,0 C 3,6 C 4,4 C 3,1 C 0,0 C 76 % 84 % 0 % 1015,3 hPa 0,0 l/m 6,6 km/h (2 Bft) S-SW 202 0 min 0,0 UV-I 1,2 C 1,3 C 13,2 km/h (3 Bft)
06.01.2014 09:50 5,3 C 13,0 C 3,9 C 4,7 C 3,4 C 0,0 C 75 % 83 % 0 % 1016,0 hPa 0,0 l/m 7,1 km/h (2 Bft) S-SO 157 0 min 0,0 UV-I 1,2 C 1,5 C 13,7 km/h (3 Bft)
06.01.2014 09:55 5,5 C 12,9 C 3,9 C 5,0 C 3,3 C 0,0 C 74 % 83 % 0 % 1016,0 hPa 0,0 l/m 7,7 km/h (2 Bft) N-NO 22 0 min 0,0 UV-I 1,2 C 1,2 C 15,8 km/h (3 Bft)
06.01.2014 10:00 5,7 C 12,9 C 4,3 C 5,2 C 3,6 C 0,0 C 72 % 81 % 0 % 1016,0 hPa 0,0 l/m 8,7 km/h (2 Bft) S 180 0 min 0,0 UV-I 1,1 C 1,3 C 17,5 km/h (3 Bft)
06.01.2014 10:05 5,8 C 13,0 C 4,5 C 5,3 C 3,7 C 0,0 C 71 % 81 % 0 % 1016,0 hPa 0,0 l/m 9,0 km/h (2 Bft) S 180 0 min 0,0 UV-I 1,0 C 1,3 C 14,8 km/h (3 Bft)
06.01.2014 10:10 6,1 C 13,0 C 4,7 C 5,6 C 4,2 C 0,0 C 70 % 80 % 0 % 1015,4 hPa 0,0 l/m 9,0 km/h (2 Bft) S-SO 157 0 min 0,0 UV-I 1,0 C 1,9 C 19,8 km/h (3 Bft)
06.01.2014 10:15 6,3 C 13,0 C 4,8 C 5,9 C 4,6 C 0,0 C 69 % 79 % 0 % 1015,4 hPa 0,0 l/m 9,5 km/h (2 Bft) S 180 0 min 0,0 UV-I 1,0 C 2,3 C 6,6 km/h (2 Bft)
06.01.2014 10:20 6,5 C 13,0 C 5,1 C 6,1 C 5,0 C 0,0 C 68 % 78 % 0 % 1015,4 hPa 0,0 l/m 8,7 km/h (2 Bft) S 180 0 min 0,0 UV-I 1,0 C 3,0 C 11,9 km/h (2 Bft)
06.01.2014 10:25 6,5 C 13,0 C 5,2 C 6,2 C 5,2 C 0,0 C 68 % 77 % 0 % 1015,4 hPa 0,0 l/m 8,9 km/h (2 Bft) SW 225 0 min 0,0 UV-I 1,0 C 3,1 C 14,6 km/h (3 Bft)
06.01.2014 10:30 6,7 C 13,0 C 5,5 C 6,4 C 5,3 C 0,0 C 67 % 76 % 0 % 1015,1 hPa 0,0 l/m 10,0 km/h (2 Bft) S-SW 202 0 min 0,0 UV-I 1,0 C 3,0 C 13,4 km/h (3 Bft)
06.01.2014 10:35 6,9 C 13,0 C 5,7 C 6,6 C 5,5 C 0,0 C 67 % 76 % 0 % 1015,1 hPa 0,0 l/m 9,2 km/h (2 Bft) O-SO 112 0 min 0,0 UV-I 1,2 C 3,4 C 11,3 km/h (2 Bft)
06.01.2014 10:40 7,1 C 12,9 C 5,8 C 6,6 C 5,5 C 0,0 C 65 % 74 % 0 % 1015,1 hPa 0,0 l/m 9,3 km/h (2 Bft) S 180 0 min 0,0 UV-I 1,0 C 3,4 C 14,8 km/h (3 Bft)
06.01.2014 10:45 7,2 C 12,9 C 6,1 C 6,9 C 5,6 C 0,0 C 65 % 74 % 0 % 1015,1 hPa 0,0 l/m 10,1 km/h (2 Bft) S 180 0 min 0,0 UV-I 1,1 C 3,4 C 9,5 km/h (2 Bft)
06.01.2014 10:50 7,3 C 12,9 C 6,3 C 7,0 C 6,0 C 0,0 C 64 % 73 % 0 % 1015,2 hPa 0,0 l/m 9,5 km/h (2 Bft) O-SO 112 0 min 0,0 UV-I 1,0 C 4,0 C 6,1 km/h (2 Bft)
06.01.2014 10:55 7,4 C 12,9 C 6,5 C 7,3 C 6,9 C 0,0 C 64 % 73 % 0 % 1015,2 hPa 0,0 l/m 8,0 km/h (2 Bft) S 180 0 min 0,0 UV-I 1,0 C 5,4 C 5,1 km/h (1 Bft)
06.01.2014 11:00 7,6 C 12,9 C 6,7 C 7,7 C 7,7 C 0,1 C 63 % 72 % 3 % 1015,2 hPa 0,0 l/m 6,9 km/h (2 Bft) N-NW 337 0 min 0,0 UV-I 1,0 C 6,6 C 4,2 km/h (1 Bft)
06.01.2014 11:05 7,7 C 12,9 C 6,8 C 8,0 C 8,0 C 0,3 C 62 % 71 % 8 % 1015,2 hPa 0,0 l/m 7,1 km/h (2 Bft) W-SW 247 0 min 0,0 UV-I 0,9 C 6,9 C 6,9 km/h (2 Bft)
06.01.2014 11:10 7,9 C 12,9 C 6,9 C 8,5 C 8,5 C 0,6 C 62 % 70 % 16 % 1014,9 hPa 0,0 l/m 6,3 km/h (2 Bft) W-SW 247 0 min 0,0 UV-I 1,1 C 7,7 C 6,0 km/h (2 Bft)
06.01.2014 11:15 8,0 C 12,9 C 7,1 C 8,6 C 8,6 C 0,6 C 61 % 70 % 16 % 1014,9 hPa 0,0 l/m 6,8 km/h (2 Bft) O-SO 112 0 min 0,0 UV-I 0,9 C 7,6 C 8,2 km/h (2 Bft)
06.01.2014 11:20 8,2 C 12,9 C 7,2 C 9,1 C 9,1 C 0,9 C 59 % 68 % 24 % 1014,9 hPa 0,0 l/m 7,4 km/h (2 Bft) SW 225 0 min 0,0 UV-I 0,7 C 8,1 C 15,8 km/h (3 Bft)
06.01.2014 11:25 8,3 C 12,9 C 7,5 C 9,6 C 9,3 C 1,3 C 58 % 68 % 34 % 1014,9 hPa 0,0 l/m 8,4 km/h (2 Bft) W-SW 247 0 min 0,0 UV-I 0,5 C 8,1 C 12,7 km/h (3 Bft)
06.01.2014 11:30 8,5 C 12,9 C 7,6 C 9,5 C 9,1 C 1,0 C 58 % 67 % 26 % 1014,6 hPa 0,0 l/m 8,7 km/h (2 Bft) S-SO 157 0 min 0,0 UV-I 0,7 C 7,8 C 9,2 km/h (2 Bft)
06.01.2014 11:35 8,7 C 12,9 C 7,6 C 9,1 C 8,5 C 0,4 C 57 % 66 % 11 % 1014,6 hPa 0,0 l/m 9,2 km/h (2 Bft) S 180 0 min 0,0 UV-I 0,7 C 7,0 C 19,0 km/h (3 Bft)
06.01.2014 11:40 8,8 C 12,9 C 7,7 C 8,8 C 8,3 C 0,0 C 56 % 65 % 0 % 1014,6 hPa 0,0 l/m 10,1 km/h (2 Bft) S 180 0 min 0,0 UV-I 0,5 C 6,6 C 10,8 km/h (2 Bft)
06.01.2014 11:45 8,8 C 12,9 C 7,9 C 8,8 C 8,4 C 0,0 C 55 % 65 % 0 % 1014,6 hPa 0,0 l/m 9,5 km/h (2 Bft) SW 225 0 min 0,0 UV-I 0,3 C 6,8 C 13,4 km/h (3 Bft)
06.01.2014 11:50 8,8 C 13,0 C 8,0 C 9,1 C 8,8 C 0,3 C 54 % 63 % 8 % 1013,8 hPa 0,0 l/m 9,8 km/h (2 Bft) S-SO 157 0 min 0,0 UV-I 0,0 C 7,2 C 11,9 km/h (2 Bft)
06.01.2014 11:55 9,1 C 13,0 C 8,1 C 9,2 C 8,7 C 0,1 C 53 % 63 % 3 % 1013,8 hPa 0,0 l/m 10,5 km/h (2 Bft) W-NW 292 0 min 0,0 UV-I 0,0 C 7,0 C 8,5 km/h (2 Bft)
06.01.2014 12:00 9,1 C 13,0 C 8,0 C 9,0 C 8,3 C 0,0 C 53 % 62 % 0 % 1013,8 hPa 0,0 l/m 10,0 km/h (2 Bft) W-SW 247 0 min 0,0 UV-I 0,0 C 6,6 C 23,5 km/h (4 Bft)
06.01.2014 12:05 8,9 C 13,0 C 8,1 C 8,7 C 8,3 C 0,0 C 54 % 62 % 0 % 1013,8 hPa 0,0 l/m 9,0 km/h (2 Bft) S 180 0 min 0,0 UV-I 0,1 C 6,8 C 9,8 km/h (2 Bft)
06.01.2014 12:10 9,0 C 13,0 C 8,3 C 9,0 C 8,8 C 0,0 C 54 % 62 % 0 % 1014,2 hPa 0,0 l/m 8,5 km/h (2 Bft) SW 225 0 min 0,0 UV-I 0,2 C 7,5 C 14,3 km/h (3 Bft)
06.01.2014 12:15 9,1 C 13,0 C 8,3 C 9,2 C 8,9 C 0,1 C 53 % 61 % 3 % 1014,2 hPa 0,0 l/m 8,5 km/h (2 Bft) W-SW 247 0 min 0,0 UV-I 0,0 C 7,6 C 15,1 km/h (3 Bft)
06.01.2014 12:20 9,2 C 13,0 C 8,4 C 9,6 C 9,6 C 0,4 C 55 % 62 % 11 % 1014,2 hPa 0,0 l/m 6,8 km/h (2 Bft) O-SO 112 0 min 0,0 UV-I 0,6 C 8,8 C 5,6 km/h (1 Bft)
06.01.2014 12:25 9,2 C 13,0 C 8,4 C 9,8 C 9,8 C 0,6 C 55 % 62 % 16 % 1014,2 hPa 0,0 l/m 5,8 km/h (2 Bft) S-SO 157 0 min 0,0 UV-I 0,6 C 9,3 C 10,0 km/h (2 Bft)
06.01.2014 12:30 9,3 C 13,0 C 8,6 C 10,3 C 10,3 C 1,0 C 55 % 62 % 26 % 1014,1 hPa 0,0 l/m 5,0 km/h (1 Bft) S 180 0 min 0,0 UV-I 0,7 C 10,3 C 4,0 km/h (1 Bft)
06.01.2014 12:35 9,3 C 13,1 C 8,7 C 10,2 C 10,2 C 0,9 C 55 % 62 % 24 % 1014,1 hPa 0,0 l/m 5,5 km/h (1 Bft) NW 315 0 min 0,0 UV-I 0,7 C 10,2 C 3,1 km/h (1 Bft)
06.01.2014 12:40 9,3 C 13,1 C 8,9 C 10,1 C 10,1 C 0,8 C 55 % 61 % 21 % 1014,1 hPa 0,0 l/m 5,8 km/h (2 Bft) S-SO 157 0 min 0,0 UV-I 0,7 C 10,1 C 5,5 km/h (1 Bft)
06.01.2014 12:45 9,3 C 13,1 C 8,9 C 10,4 C 10,4 C 1,1 C 55 % 61 % 29 % 1014,1 hPa 0,0 l/m 5,0 km/h (1 Bft) SO 135 0 min 0,0 UV-I 0,7 C 10,4 C 6,0 km/h (2 Bft)
06.01.2014 12:50 9,3 C 13,1 C 8,9 C 10,5 C 10,5 C 1,2 C 55 % 61 % 32 % 1014,2 hPa 0,0 l/m 4,2 km/h (1 Bft) S 180 0 min 0,0 UV-I 0,7 C 10,5 C 6,6 km/h (2 Bft)
06.01.2014 12:55 9,5 C 13,1 C 9,1 C 10,6 C 10,6 C 1,1 C 56 % 61 % 29 % 1014,2 hPa 0,0 l/m 3,7 km/h (1 Bft) W-SW 247 0 min 0,0 UV-I 1,2 C 10,6 C 2,1 km/h (1 Bft)
06.01.2014 13:00 9,5 C 13,1 C 9,1 C 10,8 C 10,8 C 1,3 C 55 % 61 % 34 % 1014,2 hPa 0,0 l/m 3,9 km/h (1 Bft) SO 135 0 min 0,0 UV-I 0,9 C 10,8 C 6,9 km/h (2 Bft)
06.01.2014 13:05 9,6 C 13,1 C 9,1 C 10,7 C 10,7 C 1,1 C 55 % 61 % 29 % 1014,2 hPa 0,0 l/m 3,7 km/h (1 Bft) SO 135 0 min 0,0 UV-I 1,0 C 10,7 C 4,7 km/h (1 Bft)
06.01.2014 13:10 9,7 C 13,1 C 9,2 C 10,5 C 10,5 C 0,8 C 54 % 60 % 21 % 1014,5 hPa 0,0 l/m 5,3 km/h (1 Bft) SW 225 0 min 0,0 UV-I 0,9 C 10,5 C 9,2 km/h (2 Bft)
06.01.2014 13:15 9,9 C 13,2 C 9,2 C 10,3 C 10,3 C 0,4 C 53 % 61 % 11 % 1014,5 hPa 0,0 l/m 6,1 km/h (2 Bft) N-NO 22 0 min 0,0 UV-I 0,8 C 10,3 C 12,9 km/h (3 Bft)
06.01.2014 13:20 9,9 C 13,2 C 9,5 C 9,9 C 9,9 C 0,0 C 53 % 59 % 0 % 1014,5 hPa 0,0 l/m 7,6 km/h (2 Bft) O-SO 112 0 min 0,0 UV-I 0,8 C 9,0 C 25,4 km/h (4 Bft)
06.01.2014 13:25 9,9 C 13,1 C 9,6 C 10,3 C 10,1 C 0,4 C 53 % 59 % 11 % 1014,5 hPa 0,0 l/m 8,0 km/h (2 Bft) NW 315 0 min 0,0 UV-I 0,8 C 10,1 C 9,5 km/h (2 Bft)
06.01.2014 13:30 10,1 C 13,1 C 9,7 C 10,2 C 10,2 C 0,1 C 54 % 59 % 3 % 1014,8 hPa 0,0 l/m 7,6 km/h (2 Bft) SW 225 0 min 0,0 UV-I 1,2 C 10,2 C 18,2 km/h (3 Bft)
06.01.2014 13:35 10,0 C 13,1 C 9,5 C 10,4 C 10,1 C 0,4 C 54 % 59 % 11 % 1014,8 hPa 0,0 l/m 8,7 km/h (2 Bft) W-SW 247 0 min 0,0 UV-I 1,1 C 10,1 C 10,8 km/h (2 Bft)
06.01.2014 13:40 10,0 C 13,1 C 9,4 C 10,3 C 10,0 C 0,3 C 54 % 60 % 8 % 1014,8 hPa 0,0 l/m 8,2 km/h (2 Bft) S 180 0 min 0,0 UV-I 1,1 C 9,0 C 12,9 km/h (3 Bft)
06.01.2014 13:45 9,9 C 13,1 C 9,3 C 10,1 C 10,1 C 0,2 C 55 % 60 % 5 % 1014,8 hPa 0,0 l/m 6,9 km/h (2 Bft) S 180 0 min 0,0 UV-I 1,3 C 10,1 C 8,7 km/h (2 Bft)
06.01.2014 13:50 9,7 C 13,1 C 9,3 C 10,2 C 10,2 C 0,5 C 55 % 60 % 13 % 1014,9 hPa 0,0 l/m 5,3 km/h (1 Bft) W-SW 247 0 min 0,0 UV-I 1,1 C 10,2 C 5,0 km/h (1 Bft)
06.01.2014 13:55 9,6 C 13,3 C 9,2 C 10,2 C 10,2 C 0,6 C 56 % 61 % 16 % 1014,9 hPa 0,0 l/m 4,7 km/h (1 Bft) S-SO 157 0 min 0,0 UV-I 1,3 C 10,2 C 4,0 km/h (1 Bft)
06.01.2014 14:00 9,6 C 13,3 C 9,2 C 10,2 C 10,2 C 0,6 C 56 % 61 % 16 % 1014,9 hPa 0,0 l/m 4,5 km/h (1 Bft) S 180 0 min 0,0 UV-I 1,3 C 10,2 C 7,2 km/h (2 Bft)
06.01.2014 14:05 9,6 C 13,3 C 9,2 C 9,9 C 9,9 C 0,3 C 56 % 61 % 8 % 1014,9 hPa 0,0 l/m 5,1 km/h (1 Bft) S-SW 202 0 min 0,0 UV-I 1,3 C 9,6 C 8,7 km/h (2 Bft)
06.01.2014 14:10 9,6 C 13,3 C 9,0 C 9,6 C 9,5 C 0,0 C 56 % 62 % 0 % 1014,8 hPa 0,0 l/m 6,3 km/h (2 Bft) S-SO 157 0 min 0,0 UV-I 1,3 C 8,8 C 10,9 km/h (2 Bft)
06.01.2014 14:15 9,6 C 13,3 C 9,1 C 9,6 C 9,6 C 0,0 C 56 % 62 % 0 % 1014,8 hPa 0,0 l/m 6,0 km/h (2 Bft) S-SO 157 0 min 0,0 UV-I 1,3 C 9,0 C 5,1 km/h (1 Bft)
06.01.2014 14:20 9,6 C 13,3 C 9,1 C 9,7 C 9,7 C 0,1 C 56 % 62 % 3 % 1014,8 hPa 0,0 l/m 5,3 km/h (1 Bft) W-SW 247 0 min 0,0 UV-I 1,3 C 9,3 C 8,5 km/h (2 Bft)
06.01.2014 14:25 9,6 C 13,3 C 9,0 C 9,5 C 9,3 C 0,0 C 56 % 62 % 0 % 1014,8 hPa 0,0 l/m 6,8 km/h (2 Bft) SO 135 0 min 0,0 UV-I 1,3 C 8,5 C 16,7 km/h (3 Bft)
06.01.2014 14:30 9,7 C 13,4 C 9,0 C 9,6 C 8,8 C 0,0 C 57 % 64 % 0 % 1014,8 hPa 0,0 l/m 9,3 km/h (2 Bft) W-NW 292 0 min 0,0 UV-I 1,6 C 7,3 C 10,0 km/h (2 Bft)
06.01.2014 14:35 9,7 C 13,4 C 9,0 C 9,4 C 8,8 C 0,0 C 58 % 64 % 0 % 1014,8 hPa 0,0 l/m 9,2 km/h (2 Bft) S 180 0 min 0,0 UV-I 1,8 C 7,3 C 9,2 km/h (2 Bft)
06.01.2014 14:40 9,6 C 13,4 C 9,1 C 9,5 C 9,3 C 0,0 C 60 % 65 % 0 % 1014,8 hPa 0,0 l/m 6,6 km/h (2 Bft) O-NO 67 0 min 0,0 UV-I 2,2 C 8,5 C 3,5 km/h (1 Bft)
06.01.2014 14:45 9,6 C 13,4 C 8,9 C 9,4 C 9,1 C 0,0 C 60 % 65 % 0 % 1014,8 hPa 0,0 l/m 6,3 km/h (2 Bft) S-SW 202 0 min 0,0 UV-I 2,2 C 8,4 C 13,5 km/h (3 Bft)
06.01.2014 14:50 9,6 C 13,4 C 8,8 C 9,4 C 9,1 C 0,0 C 61 % 67 % 0 % 1015,1 hPa 0,0 l/m 6,3 km/h (2 Bft) S-SW 202 0 min 0,0 UV-I 2,5 C 8,4 C 14,3 km/h (3 Bft)
06.01.2014 14:55 9,6 C 13,4 C 8,8 C 9,4 C 8,9 C 0,0 C 62 % 68 % 0 % 1015,1 hPa 0,0 l/m 6,8 km/h (2 Bft) SO 135 0 min 0,0 UV-I 2,7 C 8,0 C 6,0 km/h (2 Bft)
06.01.2014 15:00 9,6 C 13,5 C 8,7 C 9,6 C 9,6 C 0,0 C 64 % 69 % 0 % 1015,1 hPa 0,0 l/m 4,5 km/h (1 Bft) S 180 0 min 0,0 UV-I 3,1 C 9,6 C 7,4 km/h (2 Bft)
06.01.2014 15:05 9,6 C 13,5 C 8,9 C 9,6 C 9,5 C 0,0 C 65 % 70 % 0 % 1015,1 hPa 0,0 l/m 4,3 km/h (1 Bft) SO 135 0 min 0,0 UV-I 3,4 C 9,5 C 6,1 km/h (2 Bft)
06.01.2014 15:10 9,6 C 13,5 C 8,8 C 9,6 C 9,6 C 0,0 C 66 % 71 % 0 % 1014,6 hPa 0,0 l/m 4,2 km/h (1 Bft) W-SW 247 0 min 0,0 UV-I 3,6 C 9,6 C 3,4 km/h (1 Bft)
06.01.2014 15:15 9,6 C 13,5 C 8,9 C 9,6 C 9,6 C 0,0 C 66 % 71 % 0 % 1014,6 hPa 0,0 l/m 3,1 km/h (1 Bft) S-SO 157 0 min 0,0 UV-I 3,6 C 9,6 C 2,4 km/h (1 Bft)
06.01.2014 15:20 9,6 C 13,5 C 8,8 C 9,5 C 9,4 C 0,0 C 67 % 73 % 0 % 1014,6 hPa 0,0 l/m 4,5 km/h (1 Bft) O-SO 112 0 min 0,0 UV-I 3,8 C 9,4 C 8,0 km/h (2 Bft)
06.01.2014 15:25 9,7 C 13,5 C 8,8 C 9,5 C 9,2 C 0,0 C 67 % 73 % 0 % 1014,6 hPa 0,0 l/m 5,5 km/h (1 Bft) S 180 0 min 0,0 UV-I 3,9 C 8,7 C 7,1 km/h (2 Bft)
06.01.2014 15:30 9,6 C 13,6 C 8,8 C 9,4 C 9,1 C 0,0 C 68 % 73 % 0 % 1014,6 hPa 0,0 l/m 6,3 km/h (2 Bft) S 180 0 min 0,0 UV-I 4,0 C 8,4 C 8,7 km/h (2 Bft)
06.01.2014 15:35 9,7 C 13,6 C 8,9 C 9,4 C 8,9 C 0,0 C 68 % 73 % 0 % 1014,6 hPa 0,0 l/m 6,8 km/h (2 Bft) S 180 0 min 0,0 UV-I 4,1 C 8,0 C 9,3 km/h (2 Bft)
06.01.2014 15:40 9,7 C 13,6 C 8,9 C 9,5 C 9,1 C 0,0 C 68 % 74 % 0 % 1014,6 hPa 0,0 l/m 6,1 km/h (2 Bft) SW 225 0 min 0,0 UV-I 4,1 C 8,4 C 7,9 km/h (2 Bft)
06.01.2014 15:45 9,7 C 13,6 C 8,8 C 9,6 C 9,4 C 0,0 C 68 % 74 % 0 % 1014,6 hPa 0,0 l/m 5,1 km/h (1 Bft) S 180 0 min 0,0 UV-I 4,1 C 9,0 C 5,8 km/h (2 Bft)
06.01.2014 15:50 9,7 C 13,6 C 8,8 C 9,7 C 9,6 C 0,0 C 68 % 74 % 0 % 1014,7 hPa 0,0 l/m 4,0 km/h (1 Bft) S-SW 202 0 min 0,0 UV-I 4,1 C 9,6 C 2,4 km/h (1 Bft)
06.01.2014 15:55 9,7 C 13,6 C 8,7 C 9,7 C 9,6 C 0,0 C 69 % 74 % 0 % 1014,7 hPa 0,0 l/m 3,1 km/h (1 Bft) W-SW 247 0 min 0,0 UV-I 4,3 C 9,6 C 5,1 km/h (1 Bft)
06.01.2014 16:00 9,6 C 13,6 C 8,6 C 9,6 C 9,5 C 0,0 C 69 % 75 % 0 % 1014,7 hPa 0,0 l/m 2,4 km/h (1 Bft) SW 225 0 min 0,0 UV-I 4,2 C 9,5 C 4,3 km/h (1 Bft)
06.01.2014 16:05 9,6 C 13,6 C 8,7 C 9,6 C 9,5 C 0,0 C 69 % 75 % 0 % 1014,7 hPa 0,0 l/m 1,9 km/h (1 Bft) S-SO 157 0 min 0,0 UV-I 4,2 C 9,5 C 4,0 km/h (1 Bft)
06.01.2014 16:10 9,6 C 13,7 C 8,7 C 9,6 C 9,5 C 0,0 C 70 % 76 % 0 % 1015,2 hPa 0,0 l/m 2,1 km/h (1 Bft) NO 45 0 min 0,0 UV-I 4,4 C 9,5 C 4,2 km/h (1 Bft)
06.01.2014 16:15 9,6 C 13,7 C 8,6 C 9,6 C 9,5 C 0,0 C 70 % 76 % 0 % 1015,2 hPa 0,0 l/m 2,6 km/h (1 Bft) W-NW 292 0 min 0,0 UV-I 4,4 C 9,5 C 1,6 km/h (1 Bft)
06.01.2014 16:20 9,6 C 13,7 C 8,7 C 9,6 C 9,5 C 0,0 C 71 % 76 % 0 % 1015,2 hPa 0,0 l/m 2,1 km/h (1 Bft) W-SW 247 0 min 0,0 UV-I 4,6 C 9,5 C 3,2 km/h (1 Bft)
06.01.2014 16:25 9,6 C 13,7 C 8,6 C 9,6 C 9,5 C 0,0 C 71 % 77 % 0 % 1015,2 hPa 0,0 l/m 2,4 km/h (1 Bft) S-SW 202 0 min 0,0 UV-I 4,6 C 9,5 C 4,8 km/h (1 Bft)
06.01.2014 16:30 9,7 C 13,7 C 8,7 C 9,6 C 9,5 C 0,0 C 71 % 77 % 0 % 1014,6 hPa 0,0 l/m 3,1 km/h (1 Bft) N 360 0 min 0,0 UV-I 4,7 C 9,5 C 2,6 km/h (1 Bft)
06.01.2014 16:35 9,6 C 13,7 C 8,7 C 9,6 C 9,5 C 0,0 C 71 % 77 % 0 % 1014,6 hPa 0,0 l/m 3,7 km/h (1 Bft) S 180 0 min 0,0 UV-I 4,6 C 9,5 C 7,2 km/h (2 Bft)
06.01.2014 16:40 9,6 C 13,7 C 8,7 C 9,6 C 9,6 C 0,0 C 71 % 77 % 0 % 1014,6 hPa 0,0 l/m 4,2 km/h (1 Bft) S 180 0 min 0,0 UV-I 4,6 C 9,6 C 4,5 km/h (1 Bft)
06.01.2014 16:45 9,6 C 13,7 C 8,7 C 9,6 C 9,5 C 0,0 C 71 % 77 % 0 % 1014,6 hPa 0,0 l/m 4,3 km/h (1 Bft) S 180 0 min 0,0 UV-I 4,6 C 9,5 C 5,0 km/h (1 Bft)
06.01.2014 16:50 9,7 C 13,8 C 8,7 C 9,6 C 9,5 C 0,0 C 71 % 77 % 0 % 1014,6 hPa 0,0 l/m 4,3 km/h (1 Bft) S 180 0 min 0,0 UV-I 4,7 C 9,5 C 8,4 km/h (2 Bft)
06.01.2014 16:55 9,7 C 13,8 C 8,8 C 9,7 C 9,6 C 0,0 C 72 % 77 % 0 % 1014,6 hPa 0,0 l/m 4,2 km/h (1 Bft) W 270 0 min 0,0 UV-I 4,9 C 9,6 C 10,0 km/h (2 Bft)
06.01.2014 17:00 9,7 C 13,8 C 8,9 C 9,5 C 9,2 C 0,0 C 73 % 78 % 0 % 1014,6 hPa 0,0 l/m 5,5 km/h (1 Bft) SW 225 0 min 0,0 UV-I 5,1 C 8,7 C 14,3 km/h (3 Bft)
06.01.2014 17:05 9,7 C 13,8 C 8,8 C 9,3 C 8,6 C 0,0 C 73 % 79 % 0 % 1014,6 hPa 0,0 l/m 6,1 km/h (2 Bft) SW 225 0 min 0,0 UV-I 5,1 C 7,8 C 8,2 km/h (2 Bft)
06.01.2014 17:10 9,7 C 13,8 C 8,9 C 9,2 C 8,3 C 0,0 C 74 % 79 % 0 % 1014,8 hPa 0,0 l/m 6,3 km/h (2 Bft) S-SW 202 0 min 0,0 UV-I 5,3 C 7,4 C 8,4 km/h (2 Bft)
06.01.2014 17:15 9,8 C 13,8 C 8,9 C 9,4 C 8,5 C 0,0 C 74 % 79 % 0 % 1014,8 hPa 0,0 l/m 6,3 km/h (2 Bft) S 180 0 min 0,0 UV-I 5,4 C 7,7 C 8,9 km/h (2 Bft)
06.01.2014 17:20 9,8 C 13,9 C 8,8 C 9,5 C 8,9 C 0,0 C 74 % 79 % 0 % 1014,8 hPa 0,0 l/m 6,0 km/h (2 Bft) S 180 0 min 0,0 UV-I 5,4 C 8,2 C 12,7 km/h (3 Bft)
06.01.2014 17:25 9,9 C 13,9 C 8,9 C 9,6 C 8,9 C 0,0 C 74 % 79 % 0 % 1014,8 hPa 0,0 l/m 6,4 km/h (2 Bft) SO 135 0 min 0,0 UV-I 5,5 C 8,1 C 9,5 km/h (2 Bft)
06.01.2014 17:30 9,9 C 13,9 C 9,1 C 9,6 C 9,0 C 0,0 C 74 % 79 % 0 % 1014,6 hPa 0,0 l/m 6,6 km/h (2 Bft) S 180 0 min 0,0 UV-I 5,5 C 8,2 C 10,1 km/h (2 Bft)
06.01.2014 17:35 9,9 C 13,9 C 9,1 C 9,7 C 9,3 C 0,0 C 74 % 79 % 0 % 1014,6 hPa 0,0 l/m 5,8 km/h (2 Bft) S-SW 202 0 min 0,0 UV-I 5,5 C 8,7 C 3,2 km/h (1 Bft)
06.01.2014 17:40 9,9 C 13,9 C 9,1 C 9,8 C 9,7 C 0,0 C 74 % 79 % 0 % 1014,6 hPa 0,0 l/m 5,1 km/h (1 Bft) SW 225 0 min 0,0 UV-I 5,5 C 9,4 C 3,1 km/h (1 Bft)
06.01.2014 17:45 9,9 C 13,9 C 9,1 C 9,9 C 9,9 C 0,0 C 74 % 79 % 0 % 1014,6 hPa 0,0 l/m 4,5 km/h (1 Bft) S-SW 202 0 min 0,0 UV-I 5,5 C 9,9 C 5,6 km/h (1 Bft)
06.01.2014 17:50 9,9 C 13,9 C 9,2 C 10,0 C 10,0 C 0,1 C 74 % 79 % 0 % 1014,6 hPa 0,0 l/m 4,0 km/h (1 Bft) S 180 0 min 0,0 UV-I 5,5 C 10,0 C 10,0 km/h (2 Bft)
06.01.2014 17:55 10,0 C 13,9 C 9,2 C 9,9 C 9,7 C 0,0 C 74 % 79 % 0 % 1014,6 hPa 0,0 l/m 5,1 km/h (1 Bft) SW 225 0 min 0,0 UV-I 5,6 C 9,4 C 13,5 km/h (3 Bft)
06.01.2014 18:00 10,1 C 14,0 C 9,3 C 10,0 C 9,7 C 0,0 C 74 % 79 % 0 % 1014,6 hPa 0,0 l/m 5,3 km/h (1 Bft) W-SW 247 0 min 0,0 UV-I 5,7 C 9,3 C 9,3 km/h (2 Bft)
06.01.2014 18:05 10,0 C 14,0 C 9,2 C 10,0 C 9,9 C 0,0 C 74 % 79 % 0 % 1014,6 hPa 0,0 l/m 4,5 km/h (1 Bft) O-NO 67 0 min 0,0 UV-I 5,6 C 9,9 C 3,5 km/h (1 Bft)
06.01.2014 18:10 9,9 C 14,0 C 9,1 C 10,0 C 10,0 C 0,1 C 74 % 80 % 0 % 1014,6 hPa 0,0 l/m 3,4 km/h (1 Bft) SO 135 0 min 0,0 UV-I 5,5 C 10,0 C 11,7 km/h (2 Bft)
06.01.2014 18:15 9,9 C 14,0 C 9,2 C 10,0 C 10,0 C 0,1 C 75 % 80 % 0 % 1014,6 hPa 0,0 l/m 3,2 km/h (1 Bft) S 180 0 min 0,0 UV-I 5,7 C 10,0 C 2,7 km/h (1 Bft)
06.01.2014 18:20 10,0 C 14,0 C 9,2 C 10,0 C 10,0 C 0,0 C 75 % 80 % 0 % 1014,6 hPa 0,0 l/m 3,7 km/h (1 Bft) S-SO 157 0 min 0,0 UV-I 5,8 C 10,0 C 4,0 km/h (1 Bft)
06.01.2014 18:25 10,1 C 14,0 C 9,3 C 10,1 C 10,1 C 0,0 C 75 % 80 % 0 % 1014,6 hPa 0,0 l/m 3,5 km/h (1 Bft) SO 135 0 min 0,0 UV-I 5,9 C 10,1 C 5,5 km/h (1 Bft)
06.01.2014 18:30 10,1 C 14,0 C 9,3 C 10,1 C 10,1 C 0,0 C 75 % 80 % 0 % 1014,6 hPa 0,0 l/m 4,0 km/h (1 Bft) O-SO 112 0 min 0,0 UV-I 5,9 C 10,1 C 5,0 km/h (1 Bft)
06.01.2014 18:35 10,1 C 14,0 C 9,3 C 10,1 C 10,1 C 0,0 C 75 % 80 % 0 % 1014,6 hPa 0,0 l/m 3,9 km/h (1 Bft) S 180 0 min 0,0 UV-I 5,9 C 10,1 C 6,8 km/h (2 Bft)
06.01.2014 18:40 10,3 C 14,0 C 9,2 C 10,3 C 10,2 C 0,0 C 75 % 80 % 0 % 1014,6 hPa 0,0 l/m 2,7 km/h (1 Bft) SW 225 0 min 0,0 UV-I 6,1 C 10,2 C 3,7 km/h (1 Bft)
06.01.2014 18:45 10,3 C 14,1 C 9,2 C 10,3 C 10,2 C 0,0 C 75 % 80 % 0 % 1014,6 hPa 0,0 l/m 1,9 km/h (1 Bft) N-NO 22 0 min 0,0 UV-I 6,1 C 10,2 C 2,1 km/h (1 Bft)
06.01.2014 18:50 10,2 C 14,1 C 9,2 C 10,2 C 10,2 C 0,0 C 76 % 81 % 0 % 1014,2 hPa 0,0 l/m 1,6 km/h (1 Bft) S-SW 202 0 min 0,0 UV-I 6,2 C 10,2 C 3,7 km/h (1 Bft)
06.01.2014 18:55 10,4 C 14,1 C 9,4 C 10,4 C 10,3 C 0,0 C 76 % 81 % 0 % 1014,2 hPa 0,0 l/m 1,8 km/h (1 Bft) O-NO 67 0 min 0,0 UV-I 6,4 C 10,3 C 1,9 km/h (1 Bft)
06.01.2014 19:00 10,5 C 14,1 C 9,3 C 10,4 C 10,3 C 0,0 C 76 % 81 % 0 % 1014,2 hPa 0,0 l/m 1,6 km/h (1 Bft) S 180 0 min 0,0 UV-I 6,5 C 10,3 C 2,1 km/h (1 Bft)
06.01.2014 19:05 10,4 C 14,1 C 9,2 C 10,4 C 10,3 C 0,0 C 76 % 81 % 0 % 1014,2 hPa 0,0 l/m 0,6 km/h (0 Bft) O-SO 112 0 min 0,0 UV-I 6,4 C 10,3 C 0,0 km/h (0 Bft)
06.01.2014 19:10 10,3 C 14,1 C 8,9 C 10,2 C 10,1 C 0,0 C 76 % 81 % 0 % 1014,2 hPa 0,0 l/m 0,2 km/h (0 Bft) S 180 0 min 0,0 UV-I 6,3 C 10,1 C 0,0 km/h (0 Bft)
06.01.2014 19:15 10,2 C 14,1 C 8,8 C 10,2 C 10,1 C 0,0 C 76 % 81 % 0 % 1014,2 hPa 0,0 l/m 0,0 km/h (0 Bft) NO 45 0 min 0,0 UV-I 6,2 C 10,1 C 1,8 km/h (1 Bft)
06.01.2014 19:20 10,3 C 14,2 C 8,9 C 10,2 C 10,1 C 0,0 C 76 % 81 % 0 % 1014,2 hPa 0,0 l/m 0,2 km/h (0 Bft) O-NO 67 0 min 0,0 UV-I 6,3 C 10,1 C 0,0 km/h (0 Bft)
06.01.2014 19:25 10,2 C 14,2 C 8,9 C 10,2 C 10,1 C 0,0 C 76 % 82 % 0 % 1014,2 hPa 0,0 l/m 0,2 km/h (0 Bft) O-NO 67 0 min 0,0 UV-I 6,2 C 10,1 C 1,9 km/h (1 Bft)
06.01.2014 19:30 10,1 C 14,2 C 9,1 C 10,1 C 10,0 C 0,0 C 77 % 81 % 0 % 1014,1 hPa 0,0 l/m 0,5 km/h (0 Bft) O 90 0 min 0,0 UV-I 6,3 C 10,0 C 0,0 km/h (0 Bft)
06.01.2014 19:35 10,1 C 14,2 C 9,1 C 10,1 C 10,0 C 0,0 C 77 % 82 % 0 % 1014,1 hPa 0,0 l/m 0,8 km/h (0 Bft) O-SO 112 0 min 0,0 UV-I 6,3 C 10,0 C 1,6 km/h (1 Bft)
06.01.2014 19:40 10,1 C 14,2 C 9,1 C 10,1 C 10,1 C 0,0 C 77 % 81 % 0 % 1014,1 hPa 0,0 l/m 0,8 km/h (0 Bft) O-SO 112 0 min 0,0 UV-I 6,3 C 10,1 C 0,0 km/h (0 Bft)
06.01.2014 19:45 10,1 C 14,2 C 9,1 C 10,1 C 10,1 C 0,0 C 77 % 81 % 0 % 1014,1 hPa 0,0 l/m 0,6 km/h (0 Bft) O-NO 67 0 min 0,0 UV-I 6,3 C 10,1 C 1,6 km/h (1 Bft)
06.01.2014 19:50 10,1 C 14,2 C 9,0 C 10,1 C 10,0 C 0,0 C 77 % 81 % 0 % 1013,8 hPa 0,0 l/m 0,5 km/h (0 Bft) O 90 0 min 0,0 UV-I 6,3 C 10,0 C 1,8 km/h (1 Bft)
06.01.2014 19:55 10,1 C 14,2 C 9,0 C 10,1 C 10,0 C 0,0 C 77 % 82 % 0 % 1013,8 hPa 0,0 l/m 1,0 km/h (0 Bft) SO 135 0 min 0,0 UV-I 6,3 C 10,0 C 2,9 km/h (1 Bft)
06.01.2014 20:00 10,1 C 14,2 C 9,1 C 10,1 C 10,0 C 0,0 C 77 % 82 % 0 % 1013,8 hPa 0,0 l/m 1,1 km/h (1 Bft) O-NO 67 0 min 0,0 UV-I 6,3 C 10,0 C 2,9 km/h (1 Bft)
06.01.2014 20:05 10,0 C 14,2 C 9,2 C 10,0 C 10,0 C 0,0 C 77 % 82 % 0 % 1013,8 hPa 0,0 l/m 1,0 km/h (0 Bft) O-SO 112 0 min 0,0 UV-I 6,2 C 10,0 C 0,0 km/h (0 Bft)
06.01.2014 20:10 10,0 C 14,3 C 9,0 C 10,0 C 9,9 C 0,0 C 77 % 81 % 0 % 1013,5 hPa 0,0 l/m 0,3 km/h (0 Bft) O-SO 112 0 min 0,0 UV-I 6,2 C 9,9 C 0,0 km/h (0 Bft)
06.01.2014 20:15 10,0 C 14,3 C 8,9 C 9,9 C 9,8 C 0,0 C 77 % 81 % 0 % 1013,5 hPa 0,0 l/m 0,0 km/h (0 Bft) N 360 0 min 0,0 UV-I 6,2 C 9,8 C 0,0 km/h (0 Bft)
06.01.2014 20:20 9,9 C 14,3 C 8,7 C 9,8 C 9,7 C 0,0 C 77 % 82 % 0 % 1013,5 hPa 0,0 l/m 0,0 km/h (0 Bft) O-SO 112 0 min 0,0 UV-I 6,1 C 9,7 C 0,0 km/h (0 Bft)
06.01.2014 20:25 9,8 C 14,4 C 8,7 C 9,7 C 9,6 C 0,0 C 77 % 82 % 0 % 1013,5 hPa 0,0 l/m 0,0 km/h (0 Bft) N-NO 22 0 min 0,0 UV-I 6,0 C 9,6 C 0,0 km/h (0 Bft)
06.01.2014 20:30 9,8 C 14,4 C 8,4 C 9,7 C 9,4 C 0,0 C 78 % 82 % 0 % 1013,6 hPa 0,0 l/m 0,2 km/h (0 Bft) N-NO 22 0 min 0,0 UV-I 6,1 C 9,4 C 0,0 km/h (0 Bft)
06.01.2014 20:35 9,7 C 14,4 C 8,4 C 9,6 C 9,3 C 0,0 C 78 % 83 % 0 % 1013,6 hPa 0,0 l/m 0,2 km/h (0 Bft) N-NO 22 0 min 0,0 UV-I 6,1 C 9,3 C 0,0 km/h (0 Bft)
06.01.2014 20:40 9,6 C 14,4 C 8,4 C 9,5 C 9,4 C 0,0 C 78 % 83 % 0 % 1013,6 hPa 0,0 l/m 0,0 km/h (0 Bft) O-NO 67 0 min 0,0 UV-I 6,0 C 9,4 C 0,0 km/h (0 Bft)
06.01.2014 20:45 9,7 C 14,4 C 8,3 C 9,6 C 9,4 C 0,0 C 78 % 83 % 0 % 1013,6 hPa 0,0 l/m 0,0 km/h (0 Bft) O-NO 67 0 min 0,0 UV-I 6,1 C 9,4 C 0,0 km/h (0 Bft)
06.01.2014 20:50 9,5 C 14,4 C 8,3 C 9,5 C 9,4 C 0,0 C 78 % 83 % 0 % 1013,6 hPa 0,0 l/m 0,2 km/h (0 Bft) SO 135 0 min 0,0 UV-I 5,9 C 9,4 C 2,4 km/h (1 Bft)
06.01.2014 20:55 9,5 C 14,4 C 8,3 C 9,5 C 9,4 C 0,0 C 79 % 83 % 0 % 1013,6 hPa 0,0 l/m 0,2 km/h (0 Bft) W-SW 247 0 min 0,0 UV-I 6,0 C 9,4 C 0,0 km/h (0 Bft)
06.01.2014 21:00 9,7 C 14,4 C 8,3 C 9,7 C 9,6 C 0,0 C 79 % 84 % 0 % 1013,6 hPa 0,0 l/m 0,6 km/h (0 Bft) W 270 0 min 0,0 UV-I 6,2 C 9,6 C 0,0 km/h (0 Bft)
06.01.2014 21:05 9,6 C 14,4 C 8,3 C 9,7 C 9,7 C 0,1 C 79 % 84 % 0 % 1013,6 hPa 0,0 l/m 0,6 km/h (0 Bft) S 180 0 min 0,0 UV-I 6,1 C 9,7 C 0,0 km/h (0 Bft)
06.01.2014 21:10 9,7 C 14,4 C 8,4 C 9,7 C 9,6 C 0,0 C 79 % 84 % 0 % 1013,9 hPa 0,0 l/m 0,3 km/h (0 Bft) SW 225 0 min 0,0 UV-I 6,2 C 9,6 C 3,1 km/h (1 Bft)
06.01.2014 21:15 9,9 C 14,4 C 8,7 C 9,8 C 9,7 C 0,0 C 79 % 84 % 0 % 1013,9 hPa 0,0 l/m 0,6 km/h (0 Bft) S-SW 202 0 min 0,0 UV-I 6,4 C 9,7 C 2,6 km/h (1 Bft)
06.01.2014 21:20 9,9 C 14,4 C 8,7 C 10,0 C 10,0 C 0,1 C 79 % 84 % 0 % 1013,9 hPa 0,0 l/m 0,8 km/h (0 Bft) SO 135 0 min 0,0 UV-I 6,4 C 10,0 C 0,0 km/h (0 Bft)
06.01.2014 21:25 10,0 C 14,4 C 8,8 C 10,0 C 10,0 C 0,0 C 79 % 84 % 0 % 1013,9 hPa 0,0 l/m 0,5 km/h (0 Bft) W-NW 292 0 min 0,0 UV-I 6,5 C 10,0 C 2,6 km/h (1 Bft)
06.01.2014 21:30 10,3 C 14,4 C 9,2 C 10,3 C 10,3 C 0,0 C 79 % 84 % 0 % 1013,3 hPa 0,0 l/m 0,6 km/h (0 Bft) SW 225 0 min 0,0 UV-I 6,8 C 10,3 C 1,6 km/h (1 Bft)
06.01.2014 21:35 10,3 C 14,4 C 9,2 C 10,4 C 10,4 C 0,1 C 79 % 83 % 0 % 1013,3 hPa 0,0 l/m 0,6 km/h (0 Bft) N-NO 22 0 min 0,0 UV-I 6,8 C 10,4 C 0,0 km/h (0 Bft)
06.01.2014 21:40 10,4 C 14,4 C 9,2 C 10,5 C 10,5 C 0,1 C 78 % 83 % 0 % 1013,3 hPa 0,0 l/m 0,6 km/h (0 Bft) O-SO 112 0 min 0,0 UV-I 6,7 C 10,5 C 2,7 km/h (1 Bft)
06.01.2014 21:45 10,4 C 14,4 C 9,5 C 10,5 C 10,5 C 0,1 C 77 % 83 % 0 % 1013,3 hPa 0,0 l/m 1,0 km/h (0 Bft) O-SO 112 0 min 0,0 UV-I 6,5 C 10,5 C 1,6 km/h (1 Bft)
06.01.2014 21:50 10,5 C 14,4 C 9,5 C 10,5 C 10,5 C 0,0 C 77 % 82 % 0 % 1013,5 hPa 0,0 l/m 1,1 km/h (1 Bft) O-SO 112 0 min 0,0 UV-I 6,6 C 10,5 C 3,2 km/h (1 Bft)
06.01.2014 21:55 10,5 C 14,4 C 9,5 C 10,5 C 10,5 C 0,0 C 76 % 82 % 0 % 1013,5 hPa 0,0 l/m 1,0 km/h (0 Bft) O-NO 67 0 min 0,0 UV-I 6,5 C 10,5 C 2,4 km/h (1 Bft)
06.01.2014 22:00 10,7 C 14,4 C 9,5 C 10,6 C 10,5 C 0,0 C 76 % 82 % 0 % 1013,5 hPa 0,0 l/m 1,1 km/h (1 Bft) N-NO 22 0 min 0,0 UV-I 6,6 C 10,5 C 1,9 km/h (1 Bft)
06.01.2014 22:05 10,6 C 14,4 C 9,6 C 10,6 C 10,5 C 0,0 C 75 % 81 % 0 % 1013,5 hPa 0,0 l/m 1,4 km/h (1 Bft) SO 135 0 min 0,0 UV-I 6,4 C 10,5 C 1,8 km/h (1 Bft)
06.01.2014 22:10 10,6 C 14,4 C 9,5 C 10,6 C 10,5 C 0,0 C 75 % 81 % 0 % 1012,9 hPa 0,0 l/m 1,1 km/h (1 Bft) S 180 0 min 0,0 UV-I 6,4 C 10,5 C 5,0 km/h (1 Bft)
06.01.2014 22:15 10,7 C 14,4 C 9,5 C 10,6 C 10,5 C 0,0 C 75 % 81 % 0 % 1012,9 hPa 0,0 l/m 1,8 km/h (1 Bft) S 180 0 min 0,0 UV-I 6,5 C 10,5 C 3,7 km/h (1 Bft)
06.01.2014 22:20 10,6 C 14,4 C 9,5 C 10,6 C 10,5 C 0,0 C 74 % 81 % 0 % 1012,9 hPa 0,0 l/m 2,1 km/h (1 Bft) SW 225 0 min 0,0 UV-I 6,2 C 10,5 C 2,4 km/h (1 Bft)
06.01.2014 22:25 10,7 C 14,4 C 9,2 C 10,6 C 10,5 C 0,0 C 74 % 80 % 0 % 1012,9 hPa 0,0 l/m 1,3 km/h (1 Bft) S-SW 202 0 min 0,0 UV-I 6,3 C 10,5 C 0,0 km/h (0 Bft)
06.01.2014 22:30 10,5 C 14,4 C 9,2 C 10,4 C 10,3 C 0,0 C 74 % 81 % 0 % 1013,5 hPa 0,0 l/m 0,5 km/h (0 Bft) S-SO 157 0 min 0,0 UV-I 6,1 C 10,3 C 0,0 km/h (0 Bft)
06.01.2014 22:35 10,4 C 14,4 C 9,1 C 10,3 C 10,1 C 0,0 C 74 % 81 % 0 % 1013,5 hPa 0,0 l/m 0,0 km/h (0 Bft) S-SO 157 0 min 0,0 UV-I 6,0 C 10,1 C 0,0 km/h (0 Bft)
06.01.2014 22:40 10,3 C 14,5 C 8,8 C 10,2 C 10,0 C 0,0 C 74 % 81 % 0 % 1013,5 hPa 0,0 l/m 0,0 km/h (0 Bft) S 180 0 min 0,0 UV-I 5,9 C 10,0 C 0,0 km/h (0 Bft)
06.01.2014 22:45 10,3 C 14,5 C 8,8 C 10,2 C 10,0 C 0,0 C 74 % 81 % 0 % 1013,5 hPa 0,0 l/m 0,0 km/h (0 Bft) S-SW 202 0 min 0,0 UV-I 5,9 C 10,0 C 0,0 km/h (0 Bft)
06.01.2014 22:50 10,1 C 14,5 C 8,7 C 10,0 C 9,9 C 0,0 C 74 % 81 % 0 % 1013,0 hPa 0,0 l/m 0,0 km/h (0 Bft) SW 225 0 min 0,0 UV-I 5,7 C 9,9 C 0,0 km/h (0 Bft)
06.01.2014 22:55 10,0 C 14,5 C 8,5 C 9,9 C 9,8 C 0,0 C 75 % 81 % 0 % 1013,0 hPa 0,0 l/m 0,0 km/h (0 Bft) NW 315 0 min 0,0 UV-I 5,8 C 9,8 C 0,0 km/h (0 Bft)
06.01.2014 23:00 10,0 C 14,5 C 8,5 C 9,8 C 9,5 C 0,0 C 75 % 81 % 0 % 1013,0 hPa 0,0 l/m 0,0 km/h (0 Bft) S-SO 157 0 min 0,0 UV-I 5,8 C 9,5 C 0,0 km/h (0 Bft)
06.01.2014 23:05 9,9 C 14,5 C 8,3 C 9,8 C 9,5 C 0,0 C 75 % 82 % 0 % 1013,0 hPa 0,0 l/m 0,2 km/h (0 Bft) SO 135 0 min 0,0 UV-I 5,7 C 9,5 C 4,2 km/h (1 Bft)
06.01.2014 23:10 10,0 C 14,5 C 8,7 C 9,9 C 9,8 C 0,0 C 76 % 83 % 0 % 1013,0 hPa 0,0 l/m 2,1 km/h (1 Bft) S-SW 202 0 min 0,0 UV-I 6,0 C 9,8 C 2,9 km/h (1 Bft)
06.01.2014 23:15 10,1 C 14,5 C 8,9 C 10,1 C 10,0 C 0,0 C 76 % 82 % 0 % 1013,0 hPa 0,0 l/m 2,9 km/h (1 Bft) S-SW 202 0 min 0,0 UV-I 6,1 C 10,0 C 2,3 km/h (1 Bft)
06.01.2014 23:20 10,3 C 14,5 C 9,1 C 10,2 C 10,1 C 0,0 C 76 % 82 % 0 % 1013,0 hPa 0,0 l/m 1,9 km/h (1 Bft) W-NW 292 0 min 0,0 UV-I 6,3 C 10,1 C 3,2 km/h (1 Bft)
06.01.2014 23:25 10,3 C 14,6 C 9,2 C 10,2 C 10,0 C 0,0 C 76 % 82 % 0 % 1013,0 hPa 0,0 l/m 1,4 km/h (1 Bft) SW 225 0 min 0,0 UV-I 6,3 C 10,0 C 2,6 km/h (1 Bft)
06.01.2014 23:30 10,2 C 14,8 C 9,2 C 10,0 C 9,5 C 0,0 C 77 % 83 % 0 % 1013,4 hPa 0,7 l/m 3,2 km/h (1 Bft) S 180 0 min 0,0 UV-I 6,4 C 9,5 C 6,8 km/h (2 Bft)
06.01.2014 23:35 10,2 C 14,9 C 9,1 C 9,9 C 9,2 C 0,0 C 78 % 83 % 0 % 1013,4 hPa 0,0 l/m 4,3 km/h (1 Bft) S-SW 202 0 min 0,0 UV-I 6,5 C 9,2 C 3,5 km/h (1 Bft)
06.01.2014 23:40 10,1 C 15,0 C 8,8 C 9,6 C 8,7 C 0,0 C 79 % 84 % 0 % 1013,4 hPa 0,0 l/m 5,1 km/h (1 Bft) S-SW 202 0 min 0,0 UV-I 6,6 C 8,2 C 5,8 km/h (2 Bft)
06.01.2014 23:45 10,0 C 15,0 C 8,7 C 9,5 C 8,6 C 0,0 C 79 % 84 % 0 % 1013,4 hPa 0,0 l/m 5,1 km/h (1 Bft) S-SW 202 0 min 0,0 UV-I 6,5 C 8,1 C 4,0 km/h (1 Bft)
06.01.2014 23:50 9,9 C 15,0 C 8,5 C 9,4 C 8,3 C 0,0 C 80 % 84 % 0 % 1013,2 hPa 0,0 l/m 5,3 km/h (1 Bft) S 180 0 min 0,0 UV-I 6,6 C 7,7 C 5,8 km/h (2 Bft)
06.01.2014 23:55 9,8 C 15,1 C 8,5 C 9,3 C 8,3 C 0,0 C 81 % 85 % 0 % 1013,2 hPa 0,0 l/m 4,8 km/h (1 Bft) SW 225 0 min 0,0 UV-I 6,7 C 7,9 C 4,7 km/h (1 Bft)
_ Min-Zeit 06:15 09:25 06:30 06:15 06:15 00:00 11:55 13:20 00:00 22:10 - 00:00 - - - 00:00 06:15 06:15 00:00
Minimum _ -2,7 C 12,9 C -2,3 C -2,9 C -3,3 C 0,0 C 53 % 59 % 0 % 1012,9 hPa - 0,0 km/h (0 Bft) - - - 0,0 UV-I -4,3 C -3,3 C 0,0 km/h (0 Bft)
_ Max-Zeit 22:00 23:55 13:30 13:00 13:00 11:25 07:00 04:35 11:25 01:50 23:30 11:55 - - 00:00 00:00 21:30 13:00 13:20
Maximum _ 10,7 C 15,1 C 9,7 C 10,8 C 10,8 C 1,3 C 91 % 89 % 34 % 1016,8 hPa 0,7 l/m 10,5 km/h
W-NW (2 Bft)
- - 0 min 0,0 UV-I 6,8 C 10,8 C 25,4 km/h
O-SO (4 Bft)
Durchschnitt _ 5,2 C 13,8 C 4,7 C 5,2 C 4,9 C 0,1 C 77 % 80 % 2 % 1014,9 hPa #0,7 l/m 2,8 km/h (1 Bft) S - #0 min. 0,0 UV-I 1,3 C 4,6 C 4,2 km/h (1 Bft)
2014 www.wetterstation-wechselburg.de